Location: *
(2.7500°S, 66.6833°W)
Time: 22:21:25
(UTC+00:00)

Cosmos-2242 - Pass Details

Date: 24 May 2024
Orbit: 581 x 603 km, 82.5° (Epoch: 13 June)

Event Time Altitude Azimuth Distance (km) Brightness Sun altitude
Rises 22:56:06 0° 167° (SSE) 2,800 6.1 -8.5°
Reaches altitude 10° 22:58:30 10° 156° (SSE) 1,897 5.1 -9.1°
Maximum altitude 23:02:10 30° 94° (E) 1,052 3.7 -10.0°
Drops below altitude 10° 23:05:50 10° 32° (NNE) 1,891 5.4 -10.8°
Sets 23:08:13 0° 22° (NNE) 2,789 6.4 -11.4°
